Starlink 34315

operational
NORAD ID: 64266 Int'l Des: 2025-120 Owner: SPXS Country: US Constellation: starlink
LEOCIRCULAR

Starlink 34315について

説明を読み込み中...

リアルタイム位置

3D地球を読み込み中...

次回通過

高度履歴

Altitude vs Time

uPlot chart will show altitude changes over time

軌道要素

1 64266U 25120L 25354.07220601 .00022453 00000-0 76786-3 0 9994
2 64266 53.1563 126.7008 0001013 81.8304 278.2811 15.30202381 31662
Epoch: Dec 20, 2025 • Age: 11 hours

現在のステータス

高度 490.7 km
速度 7.62 km/s
衛星直下点 -44.53°S, 161.54°E
打ち上げ日 Jun 4, 2025
運用期間 0.5 years
タイプ internet

技術仕様

分類 Payload
質量 575.00 kg
乾燥質量 530.00 kg
総質量 575.00 kg
長さ 0.30 m
直径 4.10 m
スパン 29.00 m
形状 Box + pan
製造者 SPXS
バスタイプ Starlink V2MO
フェーズステータス In Orbit
所有者/国 SPXS/US

大規模コンステレーション

Loading constellations...